When you browse on this site, cookies collect data to enhance your experience and personalize the content and advertising you see.
Visit our Privacy Policy to learn more. By continuing to use the site, you agree to this use of cookies and data.

Tiempo cada hora Gold Coast

Hoy, 6 Agosto, Jueves

Tiempo Temperatura Precipitaciones Viento Presión Humedad
00:00 +14°C° 0 mm 2 mps 757 mmHg 63%
01:00 +13°C° 0 mm 2 mps 757 mmHg 62%
02:00 +13°C° 0 mm 2 mps 757 mmHg 63%
03:00 +13°C° 0 mm 1 mps 757 mmHg 65%
04:00 +12°C° 0 mm 1 mps 757 mmHg 66%
05:00 +12°C° 0 mm 1 mps 758 mmHg 67%
06:00 +12°C° 0 mm 1 mps 758 mmHg 67%
07:00 +12°C° 0 mm 1 mps 759 mmHg 68%
08:00 +16°C° 0 mm 1 mps 759 mmHg 58%
09:00 +20°C° 0 mm 1 mps 759 mmHg 48%
10:00 +24°C° 0 mm 1 mps 759 mmHg 38%
11:00 +24°C° 0 mm 2 mps 758 mmHg 37%
12:00 +25°C° 0 mm 2 mps 758 mmHg 35%
13:00 +26°C° 0 mm 2 mps 758 mmHg 34%
14:00 +24°C° 0 mm 3 mps 758 mmHg 42%
15:00 +22°C° 0 mm 3 mps 757 mmHg 51%
16:00 +20°C° 0 mm 3 mps 757 mmHg 59%
17:00 +18°C° 0 mm 3 mps 758 mmHg 67%
18:00 +16°C° 0 mm 3 mps 759 mmHg 76%
19:00 +14°C° 0 mm 2 mps 759 mmHg 84%
20:00 +13°C° 0 mm 3 mps 760 mmHg 83%
21:00 +13°C° 0 mm 3 mps 760 mmHg 82%
22:00 +12°C° 0 mm 3 mps 760 mmHg 81%
23:00 +12°C° 0 mm 3 mps 760 mmHg 82%

Mañana, 7 Agosto, Viernes

Tiempo Temperatura Precipitaciones Viento Presión Humedad
00:00 +13°C° 0 mm 2 mps 760 mmHg 83%
01:00 +13°C° 0 mm 2 mps 760 mmHg 84%
02:00 +13°C° 0 mm 3 mps 760 mmHg 86%
03:00 +13°C° 0 mm 3 mps 760 mmHg 88%
04:00 +14°C° 0 mm 3 mps 760 mmHg 90%
05:00 +14°C° 0.3 mm 3 mps 760 mmHg 91%
06:00 +14°C° 0.3 mm 3 mps 760 mmHg 92%
07:00 +15°C° 0.3 mm 4 mps 760 mmHg 92%
08:00 +17°C° 0.3 mm 4 mps 760 mmHg 90%
09:00 +17°C° 0.3 mm 5 mps 760 mmHg 89%
10:00 +19°C° 0.3 mm 5 mps 760 mmHg 87%
11:00 +19°C° 0.6 mm 5 mps 760 mmHg 85%
12:00 +19°C° 0.6 mm 6 mps 759 mmHg 84%
13:00 +20°C° 0.6 mm 6 mps 758 mmHg 83%
14:00 +19°C° 0.4 mm 6 mps 758 mmHg 83%
15:00 +19°C° 0.4 mm 6 mps 757 mmHg 84%
16:00 +19°C° 0.4 mm 6 mps 757 mmHg 85%
17:00 +17°C° 1 mm 5 mps 757 mmHg 89%
18:00 +17°C° 1 mm 5 mps 758 mmHg 93%
19:00 +16°C° 1 mm 5 mps 758 mmHg 96%
20:00 +17°C° 3.2 mm 4 mps 758 mmHg 97%
21:00 +17°C° 3.2 mm 3 mps 758 mmHg 98%
22:00 +17°C° 3.2 mm 3 mps 758 mmHg 98%
23:00 +17°C° 1.2 mm 2 mps 758 mmHg 98%

Pasado mañana, 8 Agosto, Sábado

Tiempo Temperatura Precipitaciones Viento Presión Humedad
00:00 +17°C° 1.2 mm 2 mps 757 mmHg 98%
01:00 +16°C° 1.2 mm 2 mps 757 mmHg 98%
02:00 +16°C° 0.1 mm 2 mps 757 mmHg 98%
03:00 +16°C° 0.1 mm 1 mps 756 mmHg 97%
04:00 +15°C° 0.1 mm 1 mps 756 mmHg 97%
05:00 +15°C° 0 mm 1 mps 756 mmHg 97%
06:00 +15°C° 0 mm 1 mps 757 mmHg 97%
07:00 +15°C° 0 mm 1 mps 757 mmHg 97%
08:00 +18°C° 0 mm 1 mps 757 mmHg 91%
09:00 +19°C° 0 mm 2 mps 757 mmHg 84%
10:00 +21°C° 0 mm 2 mps 757 mmHg 78%
11:00 +23°C° 0 mm 2 mps 756 mmHg 72%
12:00 +24°C° 0 mm 3 mps 755 mmHg 67%
13:00 +25°C° 0 mm 3 mps 754 mmHg 61%
14:00 +25°C° 0.1 mm 3 mps 754 mmHg 64%
15:00 +25°C° 0.1 mm 2 mps 754 mmHg 67%
16:00 +24°C° 0.1 mm 2 mps 754 mmHg 70%
17:00 +21°C° 0 mm 2 mps 754 mmHg 75%
18:00 +20°C° 0 mm 2 mps 754 mmHg 79%
19:00 +18°C° 0 mm 3 mps 754 mmHg 84%
20:00 +17°C° 0 mm 3 mps 755 mmHg 82%
21:00 +16°C° 0 mm 3 mps 755 mmHg 81%
22:00 +14°C° 0 mm 3 mps 755 mmHg 79%
23:00 +13°C° 0 mm 3 mps 755 mmHg 81%

9 Agosto, Domingo

Tiempo Temperatura Precipitaciones Viento Presión Humedad
00:00 +12°C° 0 mm 3 mps 755 mmHg 84%
01:00 +11°C° 0 mm 3 mps 755 mmHg 86%
02:00 +11°C° 0 mm 3 mps 755 mmHg 85%
03:00 +10°C° 0 mm 3 mps 755 mmHg 85%
04:00 +10°C° 0 mm 3 mps 755 mmHg 84%
05:00 +9°C° 0 mm 3 mps 756 mmHg 83%
06:00 +9°C° 0 mm 3 mps 756 mmHg 81%
07:00 +8°C° 0 mm 2 mps 756 mmHg 80%
08:00 +12°C° 0 mm 2 mps 756 mmHg 68%
09:00 +13°C° 0 mm 3 mps 756 mmHg 57%
10:00 +17°C° 0 mm 3 mps 756 mmHg 45%
11:00 +18°C° 0 mm 3 mps 756 mmHg 42%
12:00 +19°C° 0 mm 3 mps 755 mmHg 40%
13:00 +20°C° 0 mm 3 mps 754 mmHg 38%
14:00 +20°C° 0 mm 3 mps 754 mmHg 39%
15:00 +19°C° 0 mm 3 mps 754 mmHg 41%
16:00 +19°C° 0 mm 4 mps 753 mmHg 43%
17:00 +17°C° 0 mm 4 mps 754 mmHg 50%
18:00 +13°C° 0 mm 4 mps 754 mmHg 57%
19:00 +11°C° 0 mm 4 mps 755 mmHg 65%
20:00 +11°C° 0 mm 4 mps 755 mmHg 67%
21:00 +10°C° 0 mm 4 mps 755 mmHg 70%
22:00 +9°C° 0 mm 3 mps 755 mmHg 73%
23:00 +8°C° 0 mm 4 mps 755 mmHg 75%

10 Agosto, Lunes

Tiempo Temperatura Precipitaciones Viento Presión Humedad
00:00 +8°C° 0 mm 4 mps 755 mmHg 76%
01:00 +8°C° 0 mm 4 mps 755 mmHg 78%
02:00 +7°C° 0 mm 4 mps 755 mmHg 80%
03:00 +7°C° 0 mm 4 mps 754 mmHg 82%
04:00 +7°C° 0 mm 4 mps 754 mmHg 84%
05:00 +7°C° 0 mm 4 mps 754 mmHg 85%
06:00 +7°C° 0 mm 5 mps 755 mmHg 86%
07:00 +6°C° 0 mm 5 mps 755 mmHg 87%
08:00 +9°C° 0 mm 5 mps 755 mmHg 74%
09:00 +13°C° 0 mm 5 mps 755 mmHg 61%
10:00 +15°C° 0 mm 5 mps 755 mmHg 48%
11:00 +16°C° 0 mm 5 mps 755 mmHg 49%
12:00 +17°C° 0 mm 5 mps 754 mmHg 50%
13:00 +19°C° 0 mm 4 mps 754 mmHg 51%
14:00 +17°C° 0 mm 5 mps 755 mmHg 56%
15:00 +17°C° 0 mm 5 mps 755 mmHg 62%
16:00 +16°C° 0 mm 5 mps 756 mmHg 67%
17:00 +15°C° 0.1 mm 6 mps 756 mmHg 75%
18:00 +14°C° 0.1 mm 6 mps 757 mmHg 82%
19:00 +12°C° 0.1 mm 7 mps 758 mmHg 90%
20:00 +11°C° 0 mm 6 mps 759 mmHg 91%
21:00 +10°C° 0 mm 6 mps 759 mmHg 93%
22:00 +10°C° 0 mm 6 mps 760 mmHg 95%
23:00 +9°C° 0 mm 5 mps 760 mmHg 95%

11 Agosto, Martes

Tiempo Temperatura Precipitaciones Viento Presión Humedad
00:00 +9°C° 0 mm 5 mps 760 mmHg 96%
01:00 +8°C° 0 mm 5 mps 760 mmHg 96%
02:00 +8°C° 0 mm 5 mps 760 mmHg 96%
03:00 +8°C° 0 mm 5 mps 760 mmHg 96%
04:00 +8°C° 0 mm 4 mps 760 mmHg 95%
05:00 +10°C° 0 mm 4 mps 761 mmHg 94%
06:00 +10°C° 0 mm 4 mps 761 mmHg 92%
07:00 +10°C° 0 mm 4 mps 762 mmHg 90%
08:00 +13°C° 0 mm 4 mps 762 mmHg 80%
09:00 +17°C° 0 mm 4 mps 762 mmHg 69%
10:00 +19°C° 0 mm 5 mps 762 mmHg 58%
11:00 +20°C° 0 mm 5 mps 762 mmHg 55%
12:00 +21°C° 0 mm 4 mps 761 mmHg 52%
13:00 +21°C° 0 mm 4 mps 761 mmHg 49%
14:00 +21°C° 0.1 mm 4 mps 761 mmHg 56%
15:00 +20°C° 0.1 mm 4 mps 761 mmHg 63%
16:00 +19°C° 0.1 mm 4 mps 761 mmHg 70%
17:00 +18°C° 0.2 mm 4 mps 761 mmHg 77%
18:00 +16°C° 0.2 mm 3 mps 761 mmHg 83%
19:00 +14°C° 0.2 mm 3 mps 762 mmHg 90%
20:00 +14°C° 0.1 mm 3 mps 762 mmHg 90%
21:00 +13°C° 0.1 mm 3 mps 762 mmHg 91%
22:00 +14°C° 0.1 mm 2 mps 763 mmHg 91%
23:00 +14°C° 0 mm 2 mps 762 mmHg 92%
Mostrar más